sat.trackr.live / text

‹ back to catalog

STARLINK-36772

NORAD 67721 · 2026-026A

PAYLOAD ACTIVE UNKNOWN

§ Identity

Operator
Country
US
Launch date
2026-02-11
Launch site
AFWTR
Launch vehicle
Mass (kg)
RCS (m²)

Purposes: comms

External: N2YO · Heavens-Above · Gunter

§ Orbital elements

Epoch: 2026-09-19T09:02:47.043168Z

Period
93.90 min
Inclination
97.2832°
Eccentricity
0.0000638
Mean motion
15.33472586 rev/d
Perigee alt
465.0 km
Apogee alt
465.9 km
Semi-major
6,843.6 km
B*
8.0573e-4
RAAN
314.1490°
Arg perigee
83.4818°
Mean anomaly
276.6497°
Rev number
3,380

§ Raw data

STARLINK-367721 67721U 26026A   26262.37693337  .00026049  00000+0  80573-3 0  99942 67721  97.2832 314.1490 0000638  83.4818 276.6497 15.33472586 33806

JSON: /api/v1/satellites/67721 · /tle

For live sub-satellite position, see the globe view (requires WebGL).

§ Visibility from observer

Set your observer location to see the next 7 days of passes ≥ 10°. The values pass through the URL so the page stays shareable.

No JS? Fill the form by hand. The geolocation button needs JavaScript.